Location: Marcé
(47.5801°N, 0.3280°W)
Time: 04:53:08
(UTC+02:00)

X-37B - Pass Details

Date: 21 September 2023
Orbit: 277 x 277 km, 45.0° (Epoch: 01 November)

Event Time Altitude Azimuth Distance (km) Brightness Sun altitude
Exits shadow 06:19:01 34° 181° (S) 486 0.9 -15.2°
Maximum altitude 06:19:12 34° 169° (SSE) 478 0.9 -15.2°
Drops below altitude 10° 06:21:29 10° 100° (E) 1,102 3.9 -14.8°
Sets 06:23:28 0° 91° (E) 1,916 5.6 -14.5°
